Skip Page Navigation
NASA JPL Caltech
NASA Logo - Jet Propulsion Laboratory + View the NASA Portal
+ Near-Earth Object (NEO) Program
Search JPL
JPL Home Earth Solar System Stars & Galaxies Technology
JPL Solar System Dynamics
BODIES ORBITS EPHEMERIDES TOOLS PHYSICAL DATA DISCOVERY FAQ SITE MAP
JPL Small-Body Database Browser
Search: [ help ]  
27466 Cargibaysal (2000 GJ65)
Classification: Main-belt Asteroid          SPK-ID: 2027466
Ephemeris | Orbit Diagram | Orbital Elements | Physical Parameters | Discovery Circumstances | Close-Approach Data ]

[ show orbit diagram ]
Orbital Elements at Epoch 2457400.5 (2016-Jan-13.0) TDB
Reference: JPL 12 (heliocentric ecliptic J2000)
 Element Value Uncertainty (1-sigma)   Units 
e .1371289030243844 8.0877e-08  
a 2.555434202928541 1.669e-08 au
q 2.205010313929958 2.1256e-07 au
i 9.424369412187747 9.6817e-06 deg
node 197.5153066326274 2.9509e-05 deg
peri 241.1225632666174 4.9212e-05 deg
M 67.04522049660397 3.7517e-05 deg
tp 2457122.617751452773
(2015-Apr-10.11775145)
0.00015456 JED
period 1492.091587379731
4.09
1.4618e-05
4.002e-08
d
yr
n .2412720526306283 2.3637e-09 deg/d
Q 2.905858091927124 1.8979e-08 au
  Orbit Determination Parameters
   # obs. used (total)      1061  
   data-arc span      11072 days (30.31 yr)  
   first obs. used      1985-08-23  
   last obs. used      2015-12-16  
   planetary ephem.      DE431  
   SB-pert. ephem.      SB431-BIG16  
   condition code      0  
   fit RMS      .46488  
   data source      ORB  
   producer      Otto Matic  
   solution date      2016-Jan-04 14:03:56  

Additional Information
 Earth MOID = 1.23656 au 
 Jupiter MOID = 2.41512 au 
 T_jup = 3.406 
[ show covariance matrix ]

Ephemeris | Orbit Diagram | Orbital Elements | Physical Parameters | Discovery Circumstances | Close-Approach Data ]

Physical Parameter Table
Parameter Symbol Value Units Sigma Reference Notes
absolute magnitude H 14.2 mag n/a MPO250475  

27466 Cargibaysal           Discovered 2000 Apr. 5 by the Lincoln Laboratory Near-Earth Asteroid Research Team at Socorro.
Cargi Baysal mentored a finalist in the 2011 Broadcom MASTERS, a math and science competition for middle-school students. He teaches at the School of Science and Technology, Corpus Christi, Texas.
NOTE: some special characters may not display properly (any characters within {} are an attempt to place the proper accent above a character)
Reference: 20111210/MPCPages.arcLast Updated: 2011-12-12

[ show close-approach data ]
Alternate Designations
 2000 GJ65 = 1985 QS3 = 1998 XT81 
Ephemeris | Orbit Diagram | Orbital Elements | Physical Parameters | Discovery Circumstances | Close-Approach Data ]
ABOUT SSD CREDITS/AWARDS PRIVACY/COPYRIGHT GLOSSARY LINKS
FirstGov 2016-Feb-08 23:07 UT
(server date/time)  
NASA Home Page
Site Manager:   Ryan S. Park
Webmaster  Alan B. Chamberlin